User: anonymous   Login
Location: Kuppenheim
(48.8299°N, 8.2568°E)
Time: 15:27:39
(UTC+00:00)
Language:

CREW DRAGON DEMO-1 DEB - Orbit

View from above orbital plane
View from above orbital plane
View from above satellite
View from above satellite

Ground track
Ground track

The orbit data is extracted from the following two-line orbital elements,

1 44064U 19011B   21200.88031934  .06113351  12365-4  50191-3 0  9991
2 44064  51.6051  60.7312 0011883 271.9116  88.0549 16.38696548135644
Epoch (UTC): 19 July 2021 21:07:39
Eccentricity: 0.0011883
inclination: 51.6051°
perigee height: 161 km
apogee height: 177 km
right ascension of ascending node: 60.7312°
argument of perigee: 271.9116°
revolutions per day: 16.38696548
mean anomaly at epoch: 88.0549°
orbit number at epoch: 13564

The dashed part of the orbit path shows where the satellite is in the earth's shadow,  

DLR